Regional Weather Roundup
Issued by NWS Green Bay, WI

Home | Current Version | Previous Version | Text Only | Print | Product List | Glossary On
Versions: 1 2 3 4 5 6 7 8 9 10 11 12 13 14 15 16 17 18 19 20 21 22 23 24 25 26 27 28 29 30 31 32 33 34 35 36 37 38 39 40 41 42 43 44 45 46 47 48 49 50
000
ASUS43 KGRB 260900
RWRGRB

NORTH-CENTRAL AND NORTHEAST WISCONSIN REGIONAL WEATHER ROUNDUP
NATIONAL WEATHER SERVICE GREEN BAY WI
400 AM CDT WED APR 26 2017

WIZ005-009-010>012-018-019-261000-
NORTH CENTRAL WISCONSIN

CITY           SKY/WX    TMP DP  RH WIND       PRES   REMARKS
IRONWOOD       MIX PCPN  32  31  96 NE12      29.61F
MANITOWISH WTR NOT AVBL
ARBOR VITAE    NOT AVBL
EAGLE RIVER    NOT AVBL
LAND O LAKES   NOT AVBL
RHINELANDER    LGT RAIN  44  44 100 NE8       29.53F
PHILLIPS       DRIZZLE   36  36 100 NE9       29.52F
ANTIGO         NOT AVBL
TOMAHAWK       NOT AVBL
MERRILL        NOT AVBL
$$

WIZ013-073-261000-
NORTHEAST WISCONSIN

CITY           SKY/WX    TMP DP  RH WIND       PRES   REMARKS
IRON MOUNTAIN  LGT RAIN  51  47  86 NE8       29.54F
MARINETTE      LGT RAIN  46  44  93 NE7       29.54F
$$

WIZ017-030-035>037-045-261000-
CENTRAL WISCONSIN

CITY           SKY/WX    TMP DP  RH WIND       PRES   REMARKS
MEDFORD        NOT AVBL
WAUSAU         CLOUDY    54  53  97 E9        29.45F
MOSINEE        NOT AVBL
MARSHFIELD     LGT RAIN  56  53  90 E6        29.44F FOG
WISC RAPIDS    LGT RAIN  58  56  93 E5        29.45F
STEVENS POINT  NOT AVBL
WAUPACA        NOT AVBL
SHAWANO        NOT AVBL
CLINTONVILLE   RAIN      52  52 100 E7        29.49F
WAUTOMA        NOT AVBL
$$

WIZ038-039-048-051-261000-
FOX VALLEY

CITY           SKY/WX    TMP DP  RH WIND       PRES   REMARKS
NWS GREEN BAY  MOCLDY    53  53 100 NE6       29.49F
APPLETON       NOT AVBL
OSHKOSH        CLOUDY    59  53  80 SE9       29.45F
FOND DU LAC    MOCLDY    60  51  72 SE10      29.45F
$$

WIZ022-050-052-261000-
EAST CENTRAL WISCONSIN

CITY           SKY/WX    TMP DP  RH WIND       PRES   REMARKS
EPHRAIM        NOT AVBL
WASHINGTON ISL NOT AVBL
STURGEON BAY   CLOUDY    52  49  89 MISG      29.52F
MANITOWOC      NOT AVBL
SHEBOYGAN      PTCLDY    55  50  83 S9        29.50F
$$

LMZ563-521-522-541>543-261000-
LAKESHORE

STATION/POSITION TIME  TEMP    WIND        PRES    VSBY  WAVE
                       AIR SEA DIR/SP/G                  HT/PER
                 (UTC) (F)     (DEG/KT/KT) (MB)    (MI)  (FT/S)
SHEBOYGAN LKSHOR 0800   51     180/ 13/ 17  999.5F
KEWAUNEE LKSHORE 0830   52     180/  6/ 10  999.5F
NORTHPORT PIER   0840   44      70/  5/  7 1001.0F
N MID LAKE BUOY  0750   41 37   90/ 10/ 12 1003.1F         2/ 4
CHAMBERS ISLAND  0840   40      10/  8/ 10 1000.3F
MENOMINEE LKSHOR 0830   43      20/ 17/ 19  999.6F
$$



USA.gov is the U.S. government's official web portal to all federal, state and local government web resources and services.